Location: L'Union
(43.6635°N, 1.4699°E)
Time: 08:08:39
(UTC+02:00)

SEEDS - Visible Passes

Search period start: 26 October 2021 00:00
Search period end: 04 November 2021 23:00
Orbit: 585 x 601 km, 97.6° (Epoch: 25 October)

Date Brightness Start Highest point End Pass type
(mag) Time Alt. Az. Time Alt. Az. Time Alt. Az.
26 Oct ? 05:24:06 10° NE 05:26:31 15° E 05:28:55 10° SE visible
26 Oct ? 06:58:19 10° N 07:02:25 50° WNW 07:06:27 10° SSW visible
27 Oct ? 05:32:34 10° NE 05:35:32 18° E 05:38:27 10° SE visible
27 Oct ? 07:07:20 10° N 07:11:17 40° WNW 07:15:12 10° SW visible
28 Oct ? 05:41:09 10° NE 05:44:31 23° E 05:47:50 10° SSE visible
28 Oct ? 07:16:23 10° N 07:20:09 32° WNW 07:23:52 10° SW visible
29 Oct ? 05:49:50 10° NE 05:53:29 28° E 05:57:06 10° SSE visible
29 Oct ? 07:25:28 10° NNW 07:28:59 26° WNW 07:32:29 10° SW visible
30 Oct ? 05:58:34 10° NNE 06:02:26 35° E 06:06:17 10° SSE visible
30 Oct ? 07:34:36 10° NNW 07:37:50 22° WNW 07:41:01 10° WSW visible
31 Oct ? 05:07:21 10° NNE 05:11:23 44° E 05:15:23 10° S visible
31 Oct ? 06:43:49 10° NNW 06:46:38 18° WNW 06:49:28 10° WSW visible
01 Nov ? 05:16:10 10° NNE 05:20:20 55° E 05:24:25 10° S visible
01 Nov ? 06:53:08 10° NNW 06:55:27 15° WNW 06:57:46 10° W visible
02 Nov ? 05:25:02 10° NNE 05:29:15 71° ESE 05:33:24 10° S visible
02 Nov ? 07:02:40 10° NW 07:04:15 12° WNW 07:05:50 10° W visible
03 Nov ? 05:33:55 10° NNE 05:38:09 89° ESE 05:42:19 10° SSW visible
04 Nov ? 05:42:50 10° N 05:47:03 73° WNW 05:51:11 10° SSW visible
